UAE547 RPMD-RPMD

Flight info

Callsign UAE547
Flight time N/A
Altitude 20000
Route ANKIN3R ANKIN DCT RIMAR RIMAR2R
Aircraft A346/H-SDE2E3FGHIJ3J4J5M1RWXY/LB1D1

Departure

Time 2026-04-28 17:45
Airport Francisco Bangoy International Airport (RPMD)

Arrival

Time N/A
Airport Francisco Bangoy International Airport (RPMD)
Time Latitude Longitude Altitude Speed Heading
2026-04-28 17:44 7.11707 125.63594 113 ft 0 kts 49°
2026-04-28 17:44 7.11755 125.63650 113 ft 43 kts 49°
2026-04-28 17:45 7.12084 125.64031 113 ft 115 kts 50°
2026-04-28 17:45 7.12498 125.64514 119 ft 159 kts 49°
2026-04-28 17:45 7.13185 125.65331 1049 ft 134 kts 51°
2026-04-28 17:46 7.13733 125.66029 1559 ft 140 kts 54°
2026-04-28 17:46 7.14321 125.66919 1741 ft 164 kts 59°
2026-04-28 17:46 7.15006 125.67944 1999 ft 185 kts 52°
2026-04-28 17:46 7.15821 125.68967 2078 ft 195 kts 57°
2026-04-28 17:47 7.16196 125.70297 2070 ft 203 kts 94°
2026-04-28 17:47 7.15694 125.71592 2078 ft 203 kts 133°
2026-04-28 17:47 7.14554 125.71645 2647 ft 177 kts 226°
2026-04-28 17:47 7.14156 125.70927 2496 ft 174 kts 256°
2026-04-28 17:48 7.14056 125.69295 1706 ft 184 kts 276°
2026-04-28 17:48 7.14235 125.68004 1161 ft 185 kts 275°
2026-04-28 17:48 7.14063 125.66799 835 ft 176 kts 254°
2026-04-28 17:48 7.13494 125.65683 209 ft 183 kts 232°
2026-04-28 17:49 7.12716 125.64755 116 ft 161 kts 230°
2026-04-28 17:49 7.12091 125.64003 666 ft 123 kts 231°
2026-04-28 17:49 7.10288 125.61815 2511 ft 135 kts 222°
2026-04-28 17:49 7.09316 125.61745 2301 ft 165 kts 125°
2026-04-28 17:50 7.09352 125.62733 2585 ft 165 kts 48°
2026-04-28 17:50 7.10553 125.63501 1512 ft 254 kts 21°
2026-04-28 17:50 7.12503 125.63821 682 ft 307 kts 349°
2026-04-28 17:50 7.13730 125.62388 1874 ft 285 kts 263°
2026-04-28 17:51 7.12318 125.61262 2265 ft 297 kts 171°
2026-04-28 17:51 7.10278 125.61644 990 ft 379 kts 159°
2026-04-28 17:51 7.09057 125.62083 1680 ft 363 kts 167°
2026-04-28 17:51 7.07085 125.61990 4089 ft 254 kts 225°
2026-04-28 17:52 7.06306 125.60612 3735 ft 251 kts 284°
2026-04-28 17:52 7.07677 125.59592 2056 ft 313 kts 15°
2026-04-28 17:52 7.10917 125.62588 557 ft 342 kts 53°
2026-04-28 17:53 7.12405 125.64486 135 ft 339 kts 50°
2026-04-28 17:53 7.13411 125.65654 1468 ft 299 kts 47°
2026-04-28 17:53 7.14433 125.66598 4218 ft 228 kts 19°
2026-04-28 17:53 7.15641 125.66391 5493 ft 206 kts 302°
2026-04-28 17:54 7.15842 125.64802 5224 ft 264 kts 252°
2026-04-28 17:54 7.14875 125.63017 5205 ft 310 kts 234°
2026-04-28 17:54 7.13379 125.61271 5152 ft 346 kts 228°
2026-04-28 17:54 7.12187 125.59140 5341 ft 355 kts 251°
2026-04-28 17:55 7.11443 125.56914 5983 ft 317 kts 249°
2026-04-28 17:55 7.10184 125.55196 5842 ft 306 kts 211°
2026-04-28 17:55 7.08166 125.54591 5138 ft 313 kts 180°
2026-04-28 17:55 7.06056 125.55162 4335 ft 323 kts 148°
2026-04-28 17:56 7.04490 125.56811 3341 ft 335 kts 113°
2026-04-28 17:56 7.04681 125.58947 3159 ft 314 kts 50°
2026-04-28 17:56 7.06352 125.60184 2825 ft 308 kts 22°
2026-04-28 17:56 7.07616 125.60525 2450 ft 310 kts
2026-04-28 17:57 7.09761 125.60280 1823 ft 313 kts 344°
2026-04-28 17:57 7.11837 125.59814 1959 ft 283 kts 323°
2026-04-28 17:57 7.12397 125.58363 3532 ft 219 kts 249°
2026-04-28 17:57 7.11345 125.57295 2840 ft 239 kts 200°
2026-04-28 17:58 7.09626 125.57242 1649 ft 273 kts 157°
2026-04-28 17:58 7.08603 125.58671 1719 ft 248 kts 96°
2026-04-28 17:58 7.08981 125.60295 1378 ft 256 kts 56°
2026-04-28 17:58 7.10191 125.61797 761 ft 275 kts 50°
2026-04-28 17:59 7.11437 125.63270 255 ft 273 kts 51°
2026-04-28 17:59 7.12637 125.64663 149 ft 251 kts 50°
2026-04-28 17:59 7.13150 125.65273 113 ft 236 kts 50°
2026-04-28 17:59 7.13714 125.65949 111 ft 216 kts 50°
2026-04-28 18:00 7.14524 125.66933 832 ft 159 kts 51°
2026-04-28 18:00 7.14239 125.66627 619 ft 133 kts 227°
2026-04-28 18:00 7.13626 125.65856 137 ft 148 kts 232°
2026-04-28 18:00 7.13057 125.65155 106 ft 88 kts 228°